Regional Weather Roundup
Issued by NWS

Home | Current Version | Previous Version | Graphics & Text | Print | Product List | Glossary On
Versions: 1 2 3 4 5 6 7 8 9 10 11 12 13 14 15 16 17 18 19 20 21 22 23 24 25 26 27 28 29 30 31 32 33 34 35 36 37 38 39 40 41 42 43 44 45 46 47 48 49 50
000
ASUS45 KTFX 300704
RWRMT
MONTANA REGIONAL WEATHER ROUNDUP
NATIONAL WEATHER SERVICE GREAT FALLS MT
100 AM MDT SUN AUG 30 2015

NOTE: "FAIR" INDICATES FEW OR NO CLOUDS BELOW 12000 FEET WITH NO
SIGNIFICANT WEATHER AND/OR OBSTRUCTIONS TO VISIBILITY.

MTZ001>007-043-300800-
WEST OF THE DIVIDE

CITY           SKY/WX    TMP DP  RH WIND       PRES   REMARKS
KALISPELL      LGT RAIN  62  48  60 S8        29.86R
MISSOULA       MOCLDY    63  49  60 NW15      29.87F
BUTTE          CLOUDY    61  43  51 NE3       29.97R HAZE
MULLAN PASS    LGT RAIN  49  40  71 VRB5      29.98S
DEER LODGE       N/A     61  45  55 N3        29.96R
EUREKA           N/A     63  43  48 SW7       29.82F
HAMILTON         N/A     68  48  49 N8        29.86R
LIBBY            N/A     55  46  71 NW3       29.84S
$$

MTZ008-052>055-300800-
SOUTHWEST MONTANA

CITY           SKY/WX    TMP DP  RH WIND       PRES   REMARKS
BOZEMAN        CLOUDY    72  42  34 E5        29.84S
DILLON         MOCLDY    74  42  31 S18G28    29.90R
W YELLOWSTONE  LGT RAIN  54  50  87 SE14G22   30.09F
$$

MTZ009-010-012-014-046-048-049-054-300800-
EAST SLOPES AND CENTRAL MONTANA

CITY           SKY/WX    TMP DP  RH WIND       PRES   REMARKS
CUT BANK       PTCLDY    63  43  48 W15       29.82R
GREAT FALLS    PTCLDY    63  50  62 W8        29.81R HAZE
MALMSTROM AFB  MOCLDY    62  50  64 SW7       29.80S
HELENA         CLOUDY    64  48  56 W6        29.86R HAZE
$$

MTZ011-013-016-021-045-047-050-051-300800-
NORTH CENTRAL MONTANA

CITY           SKY/WX    TMP DP  RH WIND       PRES   REMARKS
HAVRE          CLOUDY    68  54  60 MISG      29.71R
LEWISTOWN      CLOUDY    63  50  62 SE7       29.82S
N BAR RANCH      N/A     66  43  42 CALM      29.85F
CHINOOK          N/A     70  55  60 SW3       29.69R
FORT BENTON      N/A     66  54  63 SW8       29.77R
$$

MTZ017>020-022>027-061-062-300800-
NORTHEAST MONTANA

CITY           SKY/WX    TMP DP  RH WIND       PRES   REMARKS
GLASGOW        PTCLDY    74  47  38 N3        29.69S HAZE
JORDAN           N/A     70  42  36 CALM      29.70F
SIDNEY         MOCLDY    66  54  63 CALM      29.70F
WOLF POINT     CLOUDY    70  51  51 E5        29.66F HAZE
PLENTYWOOD       N/A     75  48  38 E8        29.70F
POPLAR           N/A     72  52  49 NE6       29.67F
$$

MTZ028>42-056>058-300800-
SOUTHCENTRAL AND SOUTHEAST MONTANA

CITY           SKY/WX    TMP DP  RH WIND       PRES   REMARKS
BAKER          MOCLDY    71  49  45 SE9       29.79F
BILLINGS       CLOUDY    80  39  23 W14       29.80R
LIVINGSTON     MOCLDY    79  41  25 S21G32    29.83S
MILES CITY     CLOUDY    82  47  29 SE15G23   29.70F
FORSYTH          N/A     81  39  22 N3        29.69F
$$

REGIONAL REPORTS...DAKOTAS

CITY           SKY/WX    TMP DP  RH WIND       PRES   REMARKS
WILLISTON      MOCLDY    65  53  65 CALM      29.71F HAZE
MINOT          CLOUDY    80  60  50 S7        29.73S
DICKINSON      PTCLDY    65  53  65 S8        29.78
BISMARCK       MOCLDY    66  63  90 SE8       29.80S
GRAND FORKS    PTCLDY    68  66  93 S9        29.78F
FARGO          PTCLDY    68  64  87 S12       29.84F
BUFFALO SD       N/A     69  51  52 S9        29.77F
RAPID CITY     PTCLDY    70  44  39 S8        29.90F
$$

REGIONAL REPORTS...WYOMING/IDAHO/WASHINGTON

CITY           SKY/WX    TMP DP  RH WIND       PRES   REMARKS
GILLETTE       MOCLDY    73  36  25 S18       29.89F
SHERIDAN       CLOUDY    62  45  53 S5        29.83F
BUFFALO WY     CLOUDY    72  36  26 E5        29.93S
CODY           CLOUDY    77  41  27 W10G21    29.92F
YELLOWSTONE LA   N/A     52  48  86 W9G31     30.29R
IDAHO FALLS    LGT RAIN  61  56  83 NE9       29.88F
SALMON         CLOUDY    66  43  42 CALM      29.82S
BOISE          CLOUDY    73  50  44 S5        29.87R
SPOKANE        PTCLDY    60  44  55 S10       29.83S
$$

REGIONAL REPORTS...ALBERTA

CITY           SKY/WX    TMP DP  RH WIND       PRES   REMARKS
$$

REGIONAL REPORTS...SASKATCHEWAN

CITY           SKY/WX    TMP DP  RH WIND       PRES   REMARKS
SWIFT CURRENT  MOCLDY    72  48  43 NW13      29.68F HAZE
$$



USA.gov is the U.S. government's official web portal to all federal, state and local government web resources and services.